Peru, IN

9:36 AM EDT on March 25, 2017 (GMT -0400)
Grissom Air Reserve Base

Weather History for KGUS - February, 2014

Change the Weather History Date:

Friday, February 28, 2014

  Actual Average Record
Temperature  
Mean Temperature 17 °F -  
Max Temperature 32 °F 39 °F 65 °F (2016)
Min Temperature 2 °F 25 °F 0 °F (2015)
Degree Days  
Heating Degree Days 48    
Moisture  
Dew Point 7 °F    
Average Humidity 65    
Maximum Humidity 89    
Minimum Humidity 40    
Precipitation  
Precipitation 0.00 in - - ()
Sea Level Pressure  
Sea Level Pressure 30.19 in    
Wind  
Wind Speed 9 mph (SE)    
Max Wind Speed 15 mph    
Max Gust Speed -    
Visibility 10 miles    
Events      
Averages and records for this station are not official NWS values.
T = Trace of Precipitation, MM = Missing Value Source: NWS Daily Summary

Daily Weather History Graph

Daily Weather History Graph

Search for Another Location

Airport or City:

Trip Planner

Search our weather history database for the weather conditions in past years. The results will help you decide how hot, cold, wet, or windy it might be!

Date:

Astronomy

Feb. 28, 2014 Rise Set
Actual Time 7:19 AM EST 6:34 PM EST
Civil Twilight 6:52 AM EST 7:02 PM EST
Nautical Twilight 6:20 AM EST 7:34 PM EST
Astronomical Twilight 5:49 AM EST 8:05 PM EST
Moon 6:34 AM EST (2/28) 6:11 PM EST (2/28)
Length of Visible Light 12h 09m
Length of Day
11h 14m
Waning Crescent, 1% of the Moon is Illuminated
Feb 28
Waning Crescent
Mar 1
New
Mar 8
First Quarter
Mar 16
Full
Mar 23
Last Quarter

Hourly Weather History & Observations

Time (EST) Temp. Windchill Dew Point Humidity Pressure Visibility Wind Dir Wind Speed Gust Speed Precip Events Conditions
12:58 AM 2.5 °F -7.0 °F -1.1 °F 85% 30.25 in 10.0 mi ENE 4.6 mph - N/A   Clear
1:58 AM 2.8 °F -6.6 °F 0.1 °F 88% 30.25 in 10.0 mi East 4.6 mph - N/A   Clear
2:58 AM 3.4 °F -7.5 °F 0.7 °F 89% 30.25 in 10.0 mi East 5.8 mph - N/A   Clear
3:58 AM 4.3 °F -7.8 °F 0.3 °F 84% 30.25 in 10.0 mi ESE 6.9 mph - N/A   Clear
4:58 AM 4.5 °F -8.7 °F 0.1 °F 82% 30.25 in 10.0 mi East 8.1 mph - N/A   Clear
5:58 AM 4.6 °F -10.4 °F -0.2 °F 80% 30.25 in 10.0 mi East 10.4 mph - N/A   Clear
6:58 AM 5.0 °F -10.0 °F -0.8 °F 77% 30.27 in 10.0 mi ESE 10.4 mph - N/A   Clear
7:58 AM 6.3 °F -8.4 °F 0.1 °F 76% 30.28 in 10.0 mi ESE 10.4 mph - N/A   Clear
8:58 AM 9.7 °F -6.3 °F 2.1 °F 71% 30.28 in 10.0 mi SE 13.8 mph - N/A   Clear
9:58 AM 13.5 °F -0.9 °F 4.1 °F 66% 30.28 in 10.0 mi SE 12.7 mph - N/A   Mostly Cloudy
10:36 AM 15.8 °F 2.1 °F 5.0 °F 62% 30.21 in 10.0 mi SSE 12.7 mph - N/A   Mostly Cloudy
10:58 AM 17.2 °F 3.3 °F 5.2 °F 59% 30.26 in 10.0 mi SE 13.8 mph - N/A   Partly Cloudy
11:58 AM 21.7 °F 8.5 °F 6.1 °F 51% 30.24 in 10.0 mi SE 15.0 mph - N/A   Clear
12:58 PM 25.2 °F 13.9 °F 6.4 °F 45% 30.21 in 10.0 mi SSE 12.7 mph - N/A   Clear
1:58 PM 27.9 °F 16.8 °F 7.0 °F 41% 30.18 in 10.0 mi South 13.8 mph - N/A   Clear
2:58 PM 30.0 °F 19.1 °F 8.4 °F 40% 30.15 in 10.0 mi SE 15.0 mph - N/A   Scattered Clouds
3:58 PM 31.6 °F 22.1 °F 9.9 °F 40% 30.12 in 10.0 mi SSE 12.7 mph - N/A   Clear
4:58 PM 32.7 °F 23.0 °F 10.4 °F 40% 30.09 in 10.0 mi SSE 13.8 mph - N/A   Clear
5:58 PM 31.5 °F 23.5 °F 13.3 °F 47% 30.08 in 10.0 mi SE 9.2 mph - N/A   Clear
6:58 PM 28.0 °F 20.8 °F 16.9 °F 63% 30.08 in 10.0 mi SE 6.9 mph - N/A   Clear
7:58 PM 26.8 °F 20.2 °F 18.7 °F 72% 30.09 in 10.0 mi SE 5.8 mph - N/A   Clear
8:58 PM 24.8 °F 17.9 °F 17.8 °F 75% 30.08 in 10.0 mi SE 5.8 mph - N/A   Clear
9:58 PM 24.8 °F 17.9 °F 18.1 °F 76% 30.10 in 10.0 mi SSE 5.8 mph - N/A   Clear
10:58 PM 28.4 °F 19.1 °F 16.9 °F 62% 30.09 in 10.0 mi South 10.4 mph - N/A   Clear
11:58 PM 28.0 °F 19.3 °F 17.1 °F 63% 30.08 in 10.0 mi South 9.2 mph - N/A   Scattered Clouds